Retour au catalogue

ATLAS D R/B

ActifLEO
NORAD 1616·ROCKET BODY·🇺🇸 United States

Lancé Oct 5, 1965 depuis Vandenberg Space Force Base

Loading…

Prochains Passages (prochaines 24 heures)

TLE

FraisSource: Space-Track

Époque: Sep 14, 2026, 13:43 UTC

1 01616U 65078B   26257.57206019  .00005045  00000-0  40590-3 0  9997
2 01616 144.2320 323.4586 0962565  32.1183 333.4746 13.38658461762699

Suivez ATLAS D R/B en temps réel avec AllMySat

Download on the App Store